Regional Weather Roundup
Issued by NWS Binghamton, NY

Home | Current Version | Previous Version | Text Only | Print | Product List | Glossary On
Versions: 1 2 3 4 5 6 7 8 9 10 11 12 13 14 15 16 17 18 19 20 21 22 23 24 25 26 27 28
000
ASUS41 KBGM 312010
RWRBGM
RWRBGM
BINGHAMTON REGIONAL WEATHER ROUNDUP
NATIONAL WEATHER SERVICE BINGHAMTON NY
400 PM EDT FRI OCT 31 2014

Note: "fair" indicates few or no clouds below 12,000 feet with no
significant weather and/or obstructions to visibility.

* = Station(s) that does not report precipitation, such as rain,
snow, etc, also no thunder or fog.

!NYZ009-015>018-022>025-036-037-044>046-055>057-062-312100
...CENTRAL NEW YORK...

CITY           SKY/WX    TMP DP  RH WIND       PRES   REMARKS
BINGHAMTON     CLOUDY    47  30  51 E7        29.89F
CORTLAND       PTSUNNY   46  32  57 CALM      29.92S
DANSVILLE      CLOUDY    49  35  58 S6        29.90S
ELMIRA         CLOUDY    50  34  54 NE5       29.89S
ITHACA         CLOUDY    48  32  54 NE5       29.91F
HAMILTON       MOCLDY    48  34  57 NE5       29.92S
MONTICELLO     SUNNY     48  32  53 E8        29.91F
NORWICH        SUNNY     46  28  49 CALM      29.92S
ONEONTA        SUNNY     46  28  49 NE6       29.89F
PENN YAN       CLOUDY    49  34  56 E5        29.90F
ROME           CLOUDY    49  32  52 E6        29.96S
SIDNEY         SUNNY     52  36  54 CALM      29.89F
SYRACUSE       CLOUDY    50  35  56 E7        29.93F
$$

!PAZ038>040-043-044-047-048-072-312100
...NORTHEAST PENNSYLVANIA...

CITY           SKY/WX    TMP DP  RH WIND       PRES   REMARKS
HAZLETON       PTSUNNY   50  32  50 MISG      29.88F
SCRANTON       MOSUNNY   54  28  36 N6        29.87F
TOWANDA*       CLOUDY    52  30  43 CALM      29.89F
$$
&&
KEY
WCI = WIND CHILL INDEX
VSB = VISIBILITY
HX  = HEAT INDEX
$$



USA.gov is the U.S. government's official web portal to all federal, state and local government web resources and services.